Location: Cheyres
(46.8153°N, 6.7877°E)
Time: 00:55:17
(UTC+00:00)

Okean 1 - Pass Details

Date: 11 May 2021
Orbit: 538 x 554 km, 82.5° (Epoch: 23 June)

Event Time Altitude Azimuth Distance (km) Brightness Sun altitude
Exits shadow 22:29:20 77° 329° (NNW) 567 3.3 -23.7°
Drops below altitude 10° 22:33:08 10° 7° (N) 1,825 6.9 -23.8°
Sets 22:35:18 0° 9° (N) 2,720 8.0 -23.9°
